User: anonymous   Login
Location: Unspecified
(40.7945°N, 111.1337°W)
Time: 01:34:35
(UTC-06:00)
Language:

Cosmos 1674 - Orbit

View from above orbital plane
View from above orbital plane
View from above satellite
View from above satellite

Ground track
Ground track

The orbit data is extracted from the following two-line orbital elements,

1 15944U 85069A   19290.05874024  .00000455  00000-0  19749-4 0  9990
2 15944  82.5050 104.6612 0018167  49.3300 310.9510 15.19515628867268
Epoch (UTC): 17 October 2019 01:24:35
Eccentricity: 0.0018167
inclination: 82.5050°
perigee height: 495 km
apogee height: 520 km
right ascension of ascending node: 104.6612°
argument of perigee: 49.3300°
revolutions per day: 15.19515628
mean anomaly at epoch: 310.9510°
orbit number at epoch: 86726

The dashed part of the orbit path shows where the satellite is in the earth's shadow,  

DLR